Location: Ferchesar
(52.6477°N, 12.4298°E)
Time: 05:41:50
(UTC+01:00)

Vanguard 2 Rocket - Pass Details

Date: 08 December 2021
Orbit: 553 x 3325 km, 32.9° (Epoch: 25 January)

Event Time Altitude Azimuth Distance (km) Brightness Sun altitude
Rises 21:21:11 0° 246° (WSW) 3,998 10.6 -47.3°
Enters shadow 21:24:34 - 227° (SW) 3,547 10.0 -47.7°
Reaches altitude 10° 21:25:16 10° 223° (SW) 3,504 - -47.8°
Maximum altitude 21:29:44 15° 193° (SSW) 3,651 - -48.4°
Drops below altitude 10° 21:35:21 10° 165° (SSE) 4,603 - -49.1°
Sets 21:42:27 0° 147° (SSE) 6,259 - -50.0°
